DateTimeUTC,F1_A11,F1_S11,BsB_S11,BsG_S11,BsR_S11,BbsB_S11,BbsG_S11,BbsR_S11,BaB_A11,BaG_A11,BaR_A11,Tu_S11,T_S11,Uu_S11,U_S11,P_S11,T1_A11
2021-08-20T20:00:00Z,00000200,20000000,,,,,,,0000.07,-000.45,-000.24,19.8,26.6,08.6,05.7,0676.4,31.2
2021-08-20T20:01:00Z,00000200,20000000,,,,,,,-000.09,0000.30,-000.21,19.8,26.6,08.4,05.6,0676.4,31.1
2021-08-20T20:02:00Z,00000200,20000000,,,,,,,-000.15,0000.10,0000.19,19.8,26.6,08.3,05.5,0676.4,31.1
2021-08-20T20:03:00Z,00000200,60000000,,,,,,,0000.59,0000.17,0000.31,19.8,26.6,08.3,05.5,0676.5,31.1
2021-08-20T20:04:00Z,00000200,40000000,0000.95,0000.66,0000.41,0000.03,0000.06,0000.28,0000.36,0000.28,0000.14,19.9,26.5,08.5,05.8,0677.4,31.1
2021-08-20T20:05:00Z,00000200,00000000,0001.36,0000.99,0000.20,0000.16,0000.39,-000.43,0000.14,0000.54,0000.04,20.0,26.4,08.4,05.7,0677.5,31.1
2021-08-20T20:06:00Z,00000200,00000000,0000.72,0000.76,0000.61,0000.60,0000.40,0000.06,0000.13,-000.12,0000.28,20.0,26.4,08.4,05.7,0677.5,31.1
2021-08-20T20:07:00Z,00000200,00000000,0001.48,0001.21,0000.66,0000.52,0000.23,-000.00,0000.53,0000.24,0000.15,20.0,26.4,08.5,05.7,0677.5,31.1
2021-08-20T20:08:00Z,00000200,00000000,0000.99,0000.87,0000.79,0000.98,0000.17,0000.18,0000.01,0000.21,0000.06,20.0,26.4,08.5,05.7,0677.5,31.1
2021-08-20T20:09:00Z,00000200,00000000,0001.18,0000.35,0000.47,0001.00,0000.29,0000.11,0000.48,0000.53,0000.53,20.0,26.4,08.5,05.8,0677.5,31.1
2021-08-20T20:10:00Z,00000200,00000000,-000.04,0000.81,0000.68,0000.16,0000.09,0000.27,0000.15,-000.15,-000.18,20.0,26.4,08.5,05.7,0677.5,31.1
2021-08-20T20:11:00Z,00000200,00010000,0000.86,0000.81,0000.64,0000.18,0000.31,0000.07,0000.07,0000.12,0000.38,20.0,26.4,08.4,05.7,0677.5,31.1
2021-08-20T20:12:00Z,00000200,00010000,0000.56,0001.03,0000.89,0000.43,0000.09,-000.11,0000.20,0000.09,0000.25,20.0,26.4,08.3,05.7,0677.5,31.1
2021-08-20T20:13:00Z,00000200,00000000,0002.10,0000.67,0000.57,0000.39,0000.32,0000.10,0000.30,0000.67,-000.07,20.0,26.4,08.2,05.6,0677.5,31.1
2021-08-20T20:14:00Z,00000200,00000000,0001.02,0000.95,0000.59,-000.12,0000.12,0000.19,0000.12,0000.10,0000.30,20.0,26.4,08.2,05.5,0677.5,31.1
2021-08-20T20:15:00Z,00000200,00000000,0001.28,0000.77,0000.14,0000.78,0000.16,-000.21,0000.40,0000.19,0000.16,20.0,26.4,08.2,05.5,0677.6,31.1
2021-08-20T20:16:00Z,00000200,00000000,0000.29,0000.94,0000.91,-000.20,0000.10,0000.28,0000.18,0000.26,0000.31,20.0,26.3,08.1,05.5,0677.6,31.1
2021-08-20T20:17:00Z,00000200,00000000,0001.13,0000.61,0000.29,-000.03,0000.19,0000.18,0000.32,0000.48,0000.15,20.0,26.3,08.1,05.5,0677.6,31.1
2021-08-20T20:18:00Z,00000200,00000000,0001.19,0000.66,0000.65,0000.18,0000.24,-000.00,0000.23,0000.16,-000.02,20.0,26.3,08.1,05.5,0677.6,31.1
2021-08-20T20:19:00Z,00000200,00000000,0001.47,0000.52,0000.38,0000.66,0000.34,-000.21,-000.10,-000.21,0000.39,20.0,26.3,08.2,05.6,0677.6,31.1
2021-08-20T20:20:00Z,00000200,00000000,0000.58,0000.60,-000.11,0000.31,0000.39,0000.15,0000.46,0000.16,-000.17,20.0,26.3,08.1,05.5,0677.6,31.1
2021-08-20T20:21:00Z,00000200,00000000,0000.75,0000.52,0000.31,0000.20,0000.15,-000.04,0000.10,0000.16,0000.19,20.0,26.3,08.1,05.5,0677.6,31.1
2021-08-20T20:22:00Z,00000200,00000000,0001.77,0000.69,0000.36,0000.40,0000.19,-000.15,0000.11,0000.40,-000.05,20.0,26.3,08.0,05.5,0677.6,31.1
2021-08-20T20:23:00Z,00000200,00000000,0001.40,0000.52,0000.72,0000.21,0000.23,0000.05,0000.53,0000.06,0000.63,19.9,26.3,08.0,05.5,0677.6,31.1
2021-08-20T20:24:00Z,00000200,00000000,0001.35,0000.73,0000.53,0000.55,0000.22,0000.00,0000.06,0000.08,-000.22,19.9,26.3,08.0,05.5,0677.6,31.1
2021-08-20T20:25:00Z,00000200,00000000,0000.64,0000.76,0000.65,-000.44,0000.64,-000.22,0000.01,0000.53,0000.26,19.9,26.3,08.0,05.5,0677.6,31.1
2021-08-20T20:26:00Z,00000200,00000000,0000.99,0000.62,0000.39,0000.69,0000.27,-000.28,0000.30,0000.19,0000.05,19.9,26.3,08.0,05.5,0677.6,31.1
2021-08-20T20:27:00Z,00000200,00000000,0001.30,0000.65,0000.45,-000.16,0000.34,0000.36,0000.30,-000.08,0000.27,19.9,26.3,08.0,05.4,0677.6,31.1
2021-08-20T20:28:00Z,00000200,00000000,0001.50,0000.70,0000.61,0000.40,0000.31,0000.17,0000.42,0000.32,0000.13,19.9,26.3,08.1,05.5,0677.6,31.1
2021-08-20T20:29:00Z,00000200,00000000,0001.02,0000.95,0000.12,-000.08,0000.23,-000.09,-000.16,0000.40,0000.10,19.9,26.3,08.0,05.4,0677.6,31.1
2021-08-20T20:30:00Z,00000200,00000000,0000.91,0000.82,0000.63,-000.06,0000.30,-000.01,0000.20,0000.09,0000.18,19.9,26.3,08.0,05.4,0677.6,31.1
2021-08-20T20:31:00Z,00000200,00000000,0001.21,0000.57,0000.18,-000.28,0000.07,0000.27,0000.38,-000.05,0000.23,19.9,26.3,07.9,05.4,0677.6,31.1
2021-08-20T20:32:00Z,00000200,00000000,0000.61,0000.49,0000.21,0000.39,0000.13,-000.04,-000.07,0000.39,-000.26,19.9,26.3,08.0,05.4,0677.6,31.1
2021-08-20T20:33:00Z,00000200,00000000,0000.72,0000.11,0000.34,0000.27,0000.25,0000.05,0000.13,-000.11,0000.46,19.9,26.3,07.9,05.4,0677.6,31.1
2021-08-20T20:34:00Z,00000200,00000000,0000.41,0000.18,0000.47,-000.56,0000.13,0000.28,0000.17,0000.06,0000.18,19.9,26.3,07.9,05.4,0677.6,31.1
2021-08-20T20:35:00Z,00000200,00000000,0000.43,0000.20,0000.30,-000.53,-000.06,-000.03,0000.52,0000.14,-000.02,19.9,26.2,07.9,05.3,0677.6,31.1
2021-08-20T20:36:00Z,00000200,00000000,0001.19,0000.35,0000.31,0000.63,0000.04,-000.10,-000.26,0000.22,0000.02,19.9,26.3,07.9,05.4,0677.6,31.1
2021-08-20T20:37:00Z,00000200,00000000,0000.82,0000.51,0000.34,0000.57,0000.14,-000.30,0000.37,0000.18,0000.25,19.9,26.2,07.8,05.3,0677.6,31.1
2021-08-20T20:38:00Z,00000200,00000000,0001.32,0000.80,0000.36,-000.07,0000.27,0000.12,0000.10,-000.02,0000.27,19.9,26.2,07.8,05.3,0677.6,31.1
2021-08-20T20:39:00Z,00000200,00000000,0000.74,0000.40,0000.08,-000.24,0000.25,-000.06,0000.24,0000.28,0000.19,19.9,26.3,07.8,05.3,0677.6,31.1
2021-08-20T20:40:00Z,00000200,00000000,0000.15,0000.41,0000.53,0000.21,0000.01,0000.40,0000.21,0000.29,-000.16,19.9,26.2,07.7,05.3,0677.6,31.1
2021-08-20T20:41:00Z,00000200,00000000,0000.52,0000.48,0000.26,0000.07,0000.25,-000.19,0000.15,0000.17,0000.07,19.9,26.2,07.8,05.3,0677.6,31.1
2021-08-20T20:42:00Z,00000200,00000000,0000.20,0000.51,0000.16,0000.14,0000.38,-000.24,0000.13,0000.17,0000.28,19.9,26.3,07.7,05.2,0677.6,31.1
2021-08-20T20:43:00Z,00000200,00000000,0000.13,0000.68,0000.38,-000.00,0000.34,0000.20,0000.27,-000.16,-000.09,19.9,26.2,07.8,05.3,0677.5,31.1
2021-08-20T20:44:00Z,00000200,00000000,0000.83,0000.81,0000.36,0000.21,0000.09,-000.13,0000.23,0000.36,0000.26,19.9,26.2,07.7,05.3,0677.6,31.1
2021-08-20T20:45:00Z,00000200,00000000,0000.76,0000.47,0000.52,0000.50,0000.13,0000.14,0000.13,0000.08,0000.10,19.9,26.2,07.7,05.2,0677.5,31.1
2021-08-20T20:46:00Z,00000200,00000000,0001.17,0000.70,0000.23,-000.25,0000.27,0000.04,0000.10,0000.42,0000.33,19.9,26.2,07.7,05.3,0677.5,31.1
2021-08-20T20:47:00Z,00000200,00000000,0000.41,0000.55,0000.10,0000.67,0000.38,0000.18,0000.10,-000.07,0000.02,19.9,26.2,07.6,05.2,0677.5,31.1
2021-08-20T20:48:00Z,00000200,00000000,0000.85,0000.45,0000.04,0000.06,0000.13,0000.13,-000.01,0000.02,-000.41,19.9,26.2,07.7,05.2,0677.5,31.1
2021-08-20T20:49:00Z,00000200,00000000,0000.51,0000.33,0000.32,0000.12,0000.12,0000.03,0000.19,0000.13,0000.15,19.9,26.2,07.6,05.2,0677.5,31.1
2021-08-20T20:50:00Z,00000200,00000000,0000.87,0000.23,0000.32,0000.08,0000.30,-000.11,0000.02,0000.34,0000.43,19.8,26.2,07.6,05.2,0677.5,31.1
2021-08-20T20:51:00Z,00000200,00000000,0000.43,0000.74,0000.33,0000.18,-000.06,0000.18,0000.19,-000.15,-000.10,19.8,26.2,07.4,05.0,0677.5,31.1
2021-08-20T20:52:00Z,00000200,00000000,0001.03,0000.37,0000.31,0000.05,0000.38,-000.14,-000.00,-000.16,0000.04,19.8,26.2,07.4,05.0,0677.5,31.1
2021-08-20T20:53:00Z,00000200,00000000,0000.14,0000.39,0000.35,0000.47,0000.30,0000.18,0000.17,0000.32,0000.28,19.8,26.2,07.3,05.0,0677.5,31.1
2021-08-20T20:54:00Z,00000200,00000000,0000.27,0000.45,-000.01,0000.44,0000.14,-000.12,0000.48,0000.02,-000.12,19.8,26.2,07.3,05.0,0677.5,31.1
2021-08-20T20:55:00Z,00000200,00000000,0000.45,0000.06,0000.32,0000.07,0000.29,0000.20,-000.52,0000.29,0000.15,19.8,26.2,07.4,05.0,0677.5,31.1
2021-08-20T20:56:00Z,00000200,00000000,-000.30,-000.11,-000.09,0000.41,0000.14,0000.18,0000.34,-000.16,0000.27,19.8,26.2,07.3,05.0,0677.5,31.1
2021-08-20T20:57:00Z,00000200,40000000,,,,,,,0000.11,0000.08,0000.04,19.9,26.2,07.6,05.2,0677.5,31.1
2021-08-20T20:58:00Z,00000200,60000000,,,,,,,-000.15,0000.10,-000.09,19.6,26.3,07.6,05.1,0676.5,31.1
2021-08-20T20:59:00Z,00000200,20000000,,,,,,,-000.25,-000.38,-000.57,19.6,26.4,07.3,04.9,0676.5,31.1
